3B5GSAT (SATELIOT 1) (47961 NORAD) Tracking and Keplerian Element Data

This shows tracking and keplerian element data for the satellite.

Feedback or suggestion? Click here.




ElementValue
Catalog47961
Name3B5GSAT (SATELIOT 1)
Epoch Orbit1214
Epoch Day170.29590762
Epoch Year2021
RAAN72.4455
Inclination97.5599
Eccentricity0.002044
Argument of Perigee308.3117
Mean Anonmoly51.6271
Mean Motion15.0588297
Decay Rate9.74E-06
L11 47961U 21022AF 21170.29590762 .00000974 00000-0 71067-4 0 9990
L22 47961 97.5599 72.4455 0020440 308.3117 51.6271 15.05882970 12148

Live tracking and technical data element details for 3B5GSAT (SATELIOT 1) (NORAD 47961). 3B5GSAT (SATELIOT 1) can be tracked NOW for your location showing map with azimuth and elevation plus other details from your city location.

Track the satellite on the map from your city or location and see movement details for azimuth, elevation, latitude, longitude, range, height, and movement on the map or in text.







IsCatalogInMostPopularTable: catalog: 47961, numindb: 36
Update: records affected: 1



GetName: 47961 3B5GSAT (SATELIOT 1)

Hit Count: updated at: Mon, 21 Jun 2021 03:33:26 GMT